DW5977 Weather Reports


Display with metric or nautical units.
time (UTC)temp
F
wind
direction
speed
MPH
gust
MPH
rain 1hr
in
rain 24hr
in
rain mn
in
humidity
%
barometer
mb
20260905191003 74 345 3.0 9.0 0.00 0.00 0.00 56 1014.1
20260905190503 76 348 2.0 9.0 0.00 0.00 0.00 54 1014.2
20260905190003 76 350 2.0 5.0 0.00 0.00 0.00 53 1014.2
20260905185503 76 351 2.0 8.0 0.00 0.00 0.00 54 1014.4
20260905185003 76 353 2.0 8.0 0.00 0.00 0.00 55 1014.4
20260905184503 75 355 2.0 5.0 0.00 0.00 0.00 55 1014.3
20260905184003 74 355 2.0 6.0 0.00 0.00 0.00 58 1014.2
20260905183503 74 357 3.0 8.0 0.00 0.00 0.00 55 1014.2
20260905183003 76 360 2.0 8.0 0.00 0.00 0.00 53 1014.3
20260905182503 76 3 2.0 8.0 0.00 0.00 0.00 54 1014.1
20260905182003 75 5 3.0 8.0 0.00 0.00 0.00 55 1014.2
20260905181503 75 6 3.0 8.0 0.00 0.00 0.00 57 1014.3
20260905181025 74 9 2.0 8.0 0.00 0.00 0.00 58 1014.1
20260905180524 74 14 2.0 8.0 0.00 0.00 0.00 58 1014.3
20260905180003 74 15 1.0 5.0 0.00 0.00 0.00 57 1014.2
20260905175503 73 15 1.0 3.0 0.00 0.00 0.00 60 1014.1
20260905175003 73 16 2.0 7.0 0.00 0.00 0.00 59 1014.2
20260905174524 73 18 3.0 7.0 0.00 0.00 0.00 59 1014.3
20260905174003 73 19 2.0 7.0 0.00 0.00 0.00 59 1014.2
20260905173503 73 19 2.0 7.0 0.00 0.00 0.00 58 1014.2
20260905173003 73 20 3.0 9.0 0.00 0.00 0.00 61 1014.2
20260905172503 73 23 3.0 9.0 0.00 0.00 0.00 58 1014.3
20260905172003 73 27 1.0 8.0 0.00 0.00 0.00 59 1014.3
20260905171503 72 27 1.0 4.0 0.00 0.00 0.00 63 1014.3
20260905171003 72 28 3.0 9.0 0.00 0.00 0.00 61 1014.3
20260905170503 73 30 3.0 9.0 0.00 0.00 0.00 60 1014.4
20260905170003 73 32 2.0 5.0 0.00 0.00 0.00 64 1014.4
20260905165503 72 32 1.0 4.0 0.00 0.00 0.00 66 1014.3
20260905165024 72 32 1.0 4.0 0.00 0.00 0.00 64 1014.3
20260905164524 72 32 1.0 5.0 0.00 0.00 0.00 66 1014.4
20260905164003 72 32 2.0 6.0 0.00 0.00 0.00 65 1014.5
20260905163524 72 34 3.0 8.0 0.00 0.00 0.00 64 1014.5
20260905163003 72 34 3.0 8.0 0.00 0.00 0.00 62 1014.4
20260905162503 72 34 2.0 5.0 0.00 0.00 0.00 66 1014.4
20260905162003 72 34 2.0 6.0 0.00 0.00 0.00 65 1014.4
20260905161524 72 34 2.0 8.0 0.00 0.00 0.00 64 1014.5
20260905161003 72 32 2.0 10.0 0.00 0.00 0.00 65 1014.4
20260905160503 72 33 3.0 10.0 0.00 0.00 0.00 66 1014.6
20260905160024 72 37 3.0 9.0 0.00 0.00 0.00 65 1014.6
20260905155503 71 43 3.0 6.0 0.00 0.00 0.00 67 1014.6
20260905155003 71 45 2.0 5.0 0.00 0.00 0.00 67 1014.6
20260905154503 71 47 2.0 9.0 0.00 0.00 0.00 67 1014.7
20260905154003 72 50 2.0 9.0 0.00 0.00 0.00 66 1014.7
20260905153503 72 51 2.0 6.0 0.00 0.00 0.00 66 1014.6
20260905153004 72 51 2.0 6.0 0.00 0.00 0.00 66 1014.7
20260905152503 72 51 2.0 6.0 0.00 0.00 0.00 70 1014.7
20260905152003 71 52 3.0 7.0 0.00 0.00 0.00 68 1014.7
20260905151503 71 54 3.0 7.0 0.00 0.00 0.00 70 1014.7
20260905151003 70 57 3.0 10.0 0.00 0.00 0.00 69 1014.8
20260905150503 70 16 4.0 13.0 0.00 0.00 0.00 70 1014.9
20260905150003 70 274 3.0 13.0 0.00 0.00 0.00 69 1014.8
20260905145503 71 269 3.0 10.0 0.00 0.00 0.00 68 1014.8
20260905145003 71 259 3.0 10.0 0.00 0.00 0.00 69 1014.8
20260905144503 71 247 3.0 8.0 0.00 0.00 0.00 68 1014.8
20260905144003 71 239 3.0 8.0 0.00 0.00 0.00 72 1014.7
20260905143503 70 234 3.0 8.0 0.00 0.00 0.00 70 1014.8
20260905143003 70 231 2.0 8.0 0.00 0.00 0.00 72 1014.7
20260905142503 70 230 1.0 4.0 0.00 0.00 0.00 74 1014.8
20260905142003 70 236 2.0 6.0 0.00 0.00 0.00 74 1014.8
20260905141503 70 245 2.0 6.0 0.00 0.00 0.00 74 1014.8
20260905141024 69 247 2.0 5.0 0.00 0.00 0.00 75 1014.9
20260905140503 69 246 2.0 7.0 0.00 0.00 0.00 76 1014.8
20260905140003 69 246 2.0 7.0 0.00 0.00 0.00 76 1014.7
20260905135503 69 245 2.0 5.0 0.00 0.00 0.00 78 1014.8
20260905135003 68 244 2.0 5.0 0.00 0.00 0.00 78 1014.8
20260905134503 68 242 2.0 7.0 0.00 0.00 0.00 79 1014.7
20260905134003 68 240 3.0 8.0 0.00 0.00 0.00 80 1014.8
20260905133503 68 239 2.0 8.0 0.00 0.00 0.00 82 1014.8
20260905133024 68 239 2.0 7.0 0.00 0.00 0.00 85 1014.9
20260905132503 67 238 1.0 4.0 0.00 0.00 0.00 87 1014.9
20260905132003 67 237 1.0 4.0 0.00 0.00 0.00 90 1014.8
20260905131524 66 237 1.0 4.0 0.00 0.00 0.00 91 1014.9
20260905131024 65 237 1.0 4.0 0.00 0.00 0.00 92 1014.9
20260905130503 64 237 1.0 4.0 0.00 0.00 0.00 93 1015.0
20260905130003 64 236 1.0 3.0 0.00 0.00 0.00 93 1015.0
20260905125524 64 236 0.0 2.0 0.00 0.00 0.00 94 1015.0
20260905125024 64 236 0.0 1.0 0.00 0.00 0.00 93 1014.9
20260905124503 63 0 0.0 0.0 0.00 0.00 0.00 93 1015.0
20260905124024 63 0 0.0 0.0 0.00 0.00 0.00 93 1014.9
20260905123503 63 0 0.0 0.0 0.00 0.00 0.00 94 1014.9
20260905123003 63 0 0.0 0.0 0.00 0.00 0.00 95 1014.9
20260905122503 62 0 0.0 0.0 0.00 0.00 0.00 94 1014.9
20260905122003 61 0 0.0 0.0 0.00 0.00 0.00 94 1015.0
20260905121503 60 0 0.0 0.0 0.00 0.00 0.00 94 1015.0
20260905121003 60 0 0.0 0.0 0.00 0.00 0.00 94 1015.0
20260905120503 59 0 0.0 0.0 0.00 0.00 0.00 94 1015.0
20260905120024 59 0 0.0 0.0 0.00 0.00 0.00 94 1015.1
20260905115503 58 0 0.0 0.0 0.00 0.00 0.00 93 1015.0
20260905115003 58 0 0.0 0.0 0.00 0.00 0.00 94 1015.0
20260905114503 57 0 0.0 0.0 0.00 0.00 0.00 93 1015.0
20260905114003 57 0 0.0 0.0 0.00 0.00 0.00 93 1015.0
20260905113503 57 0 0.0 0.0 0.00 0.00 0.00 93 1014.9
20260905113003 56 0 0.0 0.0 0.00 0.00 0.00 93 1015.0
20260905112503 56 0 0.0 0.0 0.00 0.00 0.00 93 1014.8
20260905112003 56 0 0.0 0.0 0.00 0.00 0.00 93 1014.6
20260905111524 56 0 0.0 0.0 0.00 0.00 0.00 93 1014.4
20260905111003 56 0 0.0 0.0 0.00 0.00 0.00 93 1014.3
20260905110503 56 0 0.0 0.0 0.00 0.00 0.00 93 1014.2
20260905110003 56 0 0.0 0.0 0.00 0.00 0.00 93 1014.1
20260905105503 56 0 0.0 0.0 0.00 0.00 0.00 92 1014.1
20260905105024 56 0 0.0 0.0 0.00 0.00 0.00 92 1014.1
20260905104503 56 0 0.0 0.0 0.00 0.00 0.00 93 1014.0
20260905104024 56 0 0.0 0.0 0.00 0.00 0.00 93 1014.1
20260905103503 56 0 0.0 0.0 0.00 0.00 0.00 93 1014.2
20260905103003 56 0 0.0 0.0 0.00 0.00 0.00 93 1014.1
20260905102503 56 0 0.0 0.0 0.00 0.00 0.00 93 1014.1
20260905102024 56 0 0.0 0.0 0.00 0.00 0.00 93 1014.1
20260905101524 56 0 0.0 0.0 0.00 0.00 0.00 93 1014.2
20260905101003 56 0 0.0 0.0 0.00 0.00 0.00 92 1014.3
20260905100503 56 0 0.0 0.0 0.00 0.00 0.00 92 1014.1
20260905100003 56 0 0.0 0.0 0.00 0.00 0.00 92 1014.0
20260905095503 57 0 0.0 0.0 0.00 0.01 0.00 92 1014.0
20260905095003 57 0 0.0 0.0 0.00 0.01 0.00 92 1014.0
20260905094503 57 0 0.0 0.0 0.00 0.01 0.00 92 1013.8
20260905094003 57 0 0.0 0.0 0.00 0.01 0.00 92 1013.9
20260905093503 57 0 0.0 0.0 0.00 0.01 0.00 92 1013.8
20260905093003 57 0 0.0 0.0 0.00 0.01 0.00 92 1013.9
20260905092503 57 0 0.0 0.0 0.00 0.01 0.00 92 1013.9
20260905092003 57 0 0.0 0.0 0.00 0.01 0.00 92 1013.7
20260905091503 57 0 0.0 0.0 0.00 0.01 0.00 92 1013.8
20260905091003 57 0 0.0 0.0 0.00 0.01 0.00 92 1013.8
20260905090503 57 0 0.0 0.0 0.00 0.01 0.00 92 1013.7
20260905090024 58 0 0.0 0.0 0.00 0.01 0.00 92 1013.7
20260905085503 58 0 0.0 0.0 0.00 0.01 0.00 92 1013.7
20260905085003 58 0 0.0 0.0 0.00 0.01 0.00 92 1013.5
20260905084503 58 0 0.0 0.0 0.00 0.01 0.00 92 1013.4
20260905084003 58 0 0.0 0.0 0.00 0.01 0.00 92 1013.4
20260905083503 58 0 0.0 0.0 0.00 0.01 0.00 92 1013.3
20260905083024 58 0 0.0 0.0 0.00 0.01 0.00 92 1013.4
20260905082524 59 0 0.0 0.0 0.00 0.01 0.00 92 1013.3
20260905082024 59 0 0.0 0.0 0.00 0.01 0.00 92 1013.3
20260905081503 59 0 0.0 0.0 0.00 0.01 0.00 92 1013.3
20260905081003 59 0 0.0 0.0 0.00 0.01 0.00 92 1013.4
20260905080503 59 0 0.0 0.0 0.00 0.01 0.00 92 1013.4
20260905080003 59 0 0.0 0.0 0.00 0.01 0.00 92 1013.3
20260905075503 59 0 0.0 0.0 0.00 0.01 0.00 92 1013.4
20260905075024 59 0 0.0 0.0 0.00 0.01 0.00 92 1013.4
20260905074524 60 0 0.0 0.0 0.00 0.01 0.00 92 1013.4
20260905074003 60 0 0.0 0.0 0.00 0.01 0.00 92 1013.5
20260905073503 60 0 0.0 0.0 0.00 0.01 0.00 92 1013.5
20260905073003 60 0 0.0 0.0 0.00 0.01 0.00 92 1013.5
20260905072524 60 0 0.0 0.0 0.00 0.01 0.00 92 1013.6
20260905072003 60 0 0.0 0.0 0.00 0.01 0.00 92 1013.8
20260905071503 60 0 0.0 0.0 0.00 0.01 0.00 92 1013.8
20260905071003 60 0 0.0 0.0 0.00 0.01 0.00 92 1013.9
20260905070503 60 0 0.0 0.0 0.00 0.01 0.00 91 1013.9
20260905070003 60 0 0.0 0.0 0.00 0.01 0.00 91 1014.0
20260905065503 61 0 0.0 0.0 0.00 0.01 0.00 92 1013.9
20260905065003 61 0 0.0 0.0 0.00 0.01 0.00 92 1013.9
20260905064503 61 0 0.0 0.0 0.00 0.01 0.00 92 1013.9
20260905064003 61 0 0.0 0.0 0.00 0.01 0.00 92 1013.8
20260905063503 61 0 0.0 0.0 0.00 0.01 0.00 92 1014.0
20260905063003 61 0 0.0 0.0 0.00 0.01 0.00 91 1014.0
20260905062503 61 0 0.0 0.0 0.00 0.01 0.00 92 1014.0
20260905062003 61 0 0.0 0.0 0.00 0.01 0.00 92 1014.0
20260905061503 61 0 0.0 0.0 0.00 0.01 0.00 92 1014.0
20260905061003 62 0 0.0 0.0 0.00 0.01 0.00 92 1014.0
20260905060503 62 0 0.0 0.0 0.00 0.01 0.00 91 1014.0
20260905060003 62 0 0.0 0.0 0.00 0.01 0.00 91 1014.1
20260905055503 62 0 0.0 0.0 0.00 0.01 0.00 91 1014.1
20260905055003 62 0 0.0 0.0 0.00 0.01 0.00 91 1014.0
20260905054503 62 0 0.0 0.0 0.00 0.01 0.00 91 1014.0
20260905054003 62 236 0.0 1.0 0.00 0.01 0.00 91 1014.1
20260905053503 62 236 0.0 1.0 0.00 0.01 0.00 91 1014.1
20260905053003 62 0 0.0 0.0 0.00 0.01 0.00 91 1014.3
20260905052503 62 0 0.0 0.0 0.00 0.01 0.00 91 1014.1
20260905052003 62 0 0.0 0.0 0.00 0.01 0.00 91 1014.2
20260905051503 62 0 0.0 0.0 0.00 0.01 0.00 91 1014.2
20260905051003 62 0 0.0 0.0 0.00 0.01 0.00 91 1014.1
20260905050503 62 0 0.0 0.0 0.00 0.01 0.00 91 1014.0
20260905050003 62 0 0.0 0.0 0.00 0.01 0.00 91 1014.0
20260905045503 62 0 0.0 0.0 0.00 0.01 0.00 91 1014.2
20260905045003 63 0 0.0 0.0 0.00 0.01 0.00 91 1014.3
20260905044503 63 0 0.0 0.0 0.00 0.01 0.00 90 1014.2
20260905044003 63 0 0.0 0.0 0.00 0.01 0.00 90 1014.3
20260905043503 63 0 0.0 0.0 0.00 0.01 0.00 90 1014.3
20260905043003 63 0 0.0 0.0 0.00 0.01 0.00 90 1014.3
20260905042524 64 0 0.0 0.0 0.00 0.01 0.00 90 1014.3
20260905042003 64 0 0.0 0.0 0.00 0.01 0.00 90 1014.2
20260905041503 64 0 0.0 0.0 0.00 0.01 0.00 90 1014.1
20260905041003 64 0 0.0 0.0 0.00 0.01 0.00 90 1014.1
20260905040524 64 0 0.0 0.0 0.00 0.01 0.00 90 1014.1
20260905040003 64 0 0.0 0.0 0.00 0.01 0.00 90 1014.2
20260905035503 64 0 0.0 0.0 0.00 0.01 0.01 90 1014.1
20260905035003 64 0 0.0 0.0 0.00 0.01 0.01 90 1014.2
20260905034524 64 0 0.0 0.0 0.00 0.01 0.01 90 1014.3
20260905034003 65 0 0.0 0.0 0.00 0.01 0.01 90 1014.4
20260905033503 65 0 0.0 0.0 0.00 0.01 0.01 89 1014.4
20260905033003 65 0 0.0 0.0 0.00 0.01 0.01 89 1014.4
20260905032503 65 0 0.0 0.0 0.00 0.01 0.01 89 1014.3
20260905032003 65 0 0.0 0.0 0.00 0.01 0.01 89 1014.3
20260905031503 66 0 0.0 0.0 0.00 0.01 0.01 89 1014.3
20260905031003 66 0 0.0 0.0 0.00 0.01 0.01 89 1014.3
20260905030503 66 0 0.0 0.0 0.00 0.01 0.01 89 1014.1
20260905030024 66 0 0.0 0.0 0.00 0.01 0.01 89 1014.1
20260905025503 66 0 0.0 0.0 0.00 0.01 0.01 88 1014.1
20260905025003 66 0 0.0 0.0 0.00 0.01 0.01 88 1014.4
20260905024524 67 0 0.0 0.0 0.00 0.01 0.01 88 1014.2
20260905024003 67 0 0.0 0.0 0.00 0.01 0.01 88 1014.1
20260905023503 67 0 0.0 0.0 0.00 0.01 0.01 88 1014.2
20260905023024 67 0 0.0 0.0 0.00 0.01 0.01 88 1014.1
20260905022503 68 0 0.0 0.0 0.00 0.01 0.01 88 1014.2
20260905022003 68 0 0.0 0.0 0.00 0.01 0.01 87 1014.1
20260905021524 68 0 0.0 0.0 0.00 0.01 0.01 88 1014.1
20260905021003 68 0 0.0 0.0 0.00 0.01 0.01 87 1014.2
20260905020503 68 0 0.0 0.0 0.00 0.01 0.01 87 1014.1
20260905020024 68 0 0.0 0.0 0.00 0.01 0.01 87 1014.1
20260905015524 68 0 0.0 0.0 0.00 0.01 0.01 87 1014.2
20260905015003 68 0 0.0 0.0 0.00 0.01 0.01 87 1014.3
20260905014503 68 0 0.0 0.0 0.00 0.01 0.01 87 1014.2
20260905014003 68 0 0.0 0.0 0.00 0.01 0.01 87 1014.1
20260905013524 68 0 0.0 0.0 0.00 0.01 0.01 86 1014.3
20260905013003 68 0 0.0 0.0 0.00 0.01 0.01 86 1014.3
20260905012524 69 0 0.0 0.0 0.00 0.01 0.01 86 1014.3
20260905012003 69 0 0.0 0.0 0.00 0.03 0.01 85 1014.3
20260905011503 69 0 0.0 0.0 0.00 0.19 0.01 85 1014.2
20260905011003 69 0 0.0 0.0 0.00 0.23 0.01 85 1014.2
20260905010503 70 0 0.0 0.0 0.00 0.30 0.01 84 1014.2
20260905010024 70 236 0.0 1.0 0.00 0.31 0.01 84 1014.3
20260905005503 70 236 0.0 1.0 0.00 0.31 0.01 83 1014.2
20260905005003 70 0 0.0 0.0 0.00 0.32 0.01 83 1014.3
20260905004503 70 0 0.0 0.0 0.00 0.33 0.01 82 1014.3
20260905004003 70 236 0.0 1.0 0.00 0.34 0.01 82 1014.0
20260905003524 70 236 0.0 2.0 0.00 0.34 0.01 81 1014.0
20260905003003 71 236 0.0 2.0 0.00 0.34 0.01 81 1014.0
20260905002503 71 236 0.0 1.0 0.00 0.34 0.01 81 1014.1
20260905002003 71 236 0.0 1.0 0.00 0.39 0.01 81 1014.0
20260905001524 71 236 0.0 1.0 0.00 0.41 0.01 80 1014.0
20260905001003 71 236 0.0 1.0 0.00 0.54 0.01 80 1014.0
20260905000503 71 236 0.0 1.0 0.00 0.59 0.01 79 1013.9
20260905000003 71 236 0.0 1.0 0.00 0.59 0.01 79 1013.9
20260904235503 72 236 0.0 2.0 0.00 0.59 0.01 78 1014.0
20260904235024 72 236 0.0 2.0 0.00 0.59 0.01 78 1014.0
20260904234504 72 236 0.0 2.0 0.00 0.59 0.01 77 1014.0
20260904234003 72 236 1.0 3.0 0.00 0.59 0.01 77 1013.9
20260904233503 72 236 1.0 3.0 0.00 0.59 0.01 77 1013.8
20260904233003 72 236 1.0 3.0 0.00 0.59 0.01 77 1013.9
20260904232503 72 236 0.0 2.0 0.00 0.60 0.01 77 1013.8
20260904232003 72 236 1.0 3.0 0.00 0.62 0.01 77 1013.9
20260904231503 72 236 1.0 3.0 0.00 0.62 0.01 76 1014.0
20260904231024 72 236 0.0 3.0 0.00 0.62 0.01 76 1013.8
20260904230503 72 236 1.0 3.0 0.00 0.62 0.01 76 1013.8
20260904230003 72 236 1.0 3.0 0.00 0.62 0.01 75 1013.7
20260904225503 72 236 1.0 3.0 0.00 0.62 0.01 76 1013.6
20260904225003 72 236 1.0 2.0 0.00 0.62 0.01 76 1013.6
20260904224524 73 236 1.0 2.0 0.00 0.62 0.01 75 1013.5
20260904224003 72 236 0.0 3.0 0.00 0.62 0.01 75 1013.4
20260904223503 72 236 0.0 3.0 0.00 0.62 0.01 75 1013.4
20260904223003 72 236 1.0 4.0 0.00 0.62 0.01 74 1013.4
20260904222503 72 236 1.0 4.0 0.00 0.62 0.01 75 1013.3
20260904222024 72 236 1.0 4.0 0.00 0.62 0.01 74 1013.1
20260904221503 73 236 1.0 4.0 0.00 0.62 0.01 74 1013.0
20260904221003 73 236 1.0 4.0 0.00 0.62 0.01 74 1013.1
20260904220524 73 236 1.0 3.0 0.00 0.62 0.01 74 1012.9
20260904220003 73 236 1.0 3.0 0.00 0.62 0.01 73 1012.9
20260904215503 73 236 1.0 3.0 0.00 0.62 0.01 73 1012.9
20260904215003 73 236 1.0 4.0 0.00 0.62 0.01 72 1012.9
20260904214524 73 236 1.0 4.0 0.00 0.62 0.01 72 1012.8
20260904214003 73 236 1.0 3.0 0.00 0.62 0.01 72 1012.8
20260904213503 73 236 1.0 3.0 0.00 0.62 0.01 73 1012.8
20260904213003 73 236 0.0 2.0 0.00 0.62 0.01 73 1012.8
20260904212503 73 236 1.0 4.0 0.00 0.62 0.01 73 1012.8
20260904212003 73 236 1.0 4.0 0.00 0.62 0.01 72 1013.0
20260904211503 73 236 1.0 4.0 0.00 0.62 0.01 72 1013.0
20260904211003 73 236 2.0 4.0 0.00 0.62 0.01 71 1013.0
20260904210503 73 236 1.0 4.0 0.00 0.62 0.01 71 1013.3
20260904210003 73 236 1.0 4.0 0.00 0.62 0.01 71 1013.3
20260904205524 74 237 2.0 8.0 0.00 0.62 0.01 71 1013.4
20260904205003 74 237 2.0 8.0 0.00 0.62 0.01 70 1013.3
20260904204503 74 238 2.0 5.0 0.00 0.62 0.01 69 1013.4
20260904204003 74 238 2.0 8.0 0.00 0.62 0.01 69 1013.5
20260904203503 74 239 2.0 8.0 0.00 0.62 0.01 68 1013.5
20260904203003 74 240 2.0 7.0 0.00 0.62 0.01 68 1013.5
20260904202503 74 240 3.0 7.0 0.00 0.62 0.01 67 1013.6
20260904202003 74 240 3.0 8.0 0.00 0.62 0.01 67 1013.5
20260904201503 74 240 3.0 8.0 0.00 0.62 0.01 66 1013.6
20260904201003 74 239 3.0 7.0 0.00 0.62 0.01 64 1013.7
20260904200524 75 238 3.0 7.0 0.00 0.62 0.01 63 1013.7
20260904200003 75 239 3.0 8.0 0.00 0.62 0.01 64 1013.7
20260904195503 75 240 2.0 7.0 0.00 0.62 0.01 64 1013.7
20260904195003 75 240 2.0 7.0 0.00 0.62 0.01 63 1013.8
20260904194524 75 240 2.0 7.0 0.00 0.62 0.01 62 1014.0
20260904194003 75 240 3.0 8.0 0.00 0.62 0.01 63 1013.9
20260904193503 75 240 3.0 8.0 0.00 0.62 0.01 62 1013.9
20260904193003 75 239 3.0 7.0 0.00 0.62 0.01 61 1014.0
20260904192503 75 240 3.0 10.0 0.00 0.62 0.01 62 1014.0
20260904192003 76 245 3.0 10.0 0.00 0.62 0.01 62 1014.3
20260904191503 76 251 3.0 8.0 0.00 0.62 0.01 62 1014.3